Location: Drocourt
(49.0571°N, 1.7669°E)
Time: 09:16:18
(UTC+00:00)

Cosmos 2285 Rocket - Pass Details

Date: 09 February 2023
Orbit: 971 x 998 km, 74.0° (Epoch: 23 March)

Event Time Altitude Azimuth Distance (km) Brightness Sun altitude
Rises 19:32:04 0° 337° (NNW) 3,691 7.4 -24.8°
Reaches altitude 10° 19:34:40 10° 341° (NNW) 2,737 6.6 -25.2°
Maximum altitude 19:40:57 62° 62° (ENE) 1,092 3.9 -26.3°
Enters shadow 19:41:03 62° 67° (ENE) 1,093 3.9 -26.3°
